Volver al catálogo

STARLINK-36345

ActivoComunicacionesVLEO
NORAD 68243·PAYLOAD·🇺🇸 United States

Lanzado Mar 17, 2026 desde Vandenberg Space Force Base

Loading…

Próximos Pases (próximas 24 horas)

TLE

ActualizadoSource: CelesTrak SupGP

Época: Sep 14, 2026, 21:10 UTC

1 68243C 26054M   26257.88243056 -.00097136  00000+0 -28692-2 0  2571
2 68243  53.1575 127.8346 0001306  89.1606 197.4371 15.34447292    16

Sigue STARLINK-36345 en tiempo real con AllMySat

Download on the App Store